World > North America > United States > Ohio > Columbus   City of Columbus, Ohio

Columbus, OH Hourly Weather Conditions

Feedback E-mail the Weather

Quick WX

Columbus, OH Weather Maps

°F °C°F °C
Columbus Weather Map
UTC Time: 11/28/2022, 12:50
Your Time:

Columbus, OH Regional Weather

Expires:202211281300;;944702
ASUS41 KCLE 281212
RWRCLE
OHIO REGIONAL WEATHER ROUNDUP
NATIONAL WEATHER SERVICE WILMINGTON, OH
700 AM EST MON NOV 28 2022

NOTE: "FAIR" INDICATES FEW OR NO CLOUDS BELOW 12,000 FEET WITH NO
SIGNIFICANT WEATHER AND/OR OBSTRUCTIONS TO VISIBILITY.


OHZ036-037-039>041-045>050-054>059-063>069-073>076-082>088-281300-
  CENTRAL AND SOUTHEAST OHIO
  
CITY           SKY/WX    TMP DP  RH WIND       PRES   REMARKS
COLUMBUS       CLOUDY    41  39  93 W5        29.88R                  
OSU AIRPORT    CLOUDY    42  38  85 NW5       29.88R                  
BOLTON FIELD   CLOUDY    40  38  93 CALM      29.89R                  
RICKENBACK AFB CLOUDY    40  38  92 CALM      29.88R                  
NEWARK         CLOUDY    43  38  82 W3        29.87R                  
MARION         CLOUDY    40  36  86 N8        29.87R                  
LANCASTER      CLOUDY    41  39  93 CALM      29.88R                  
ZANESVILLE     CLOUDY    42  37  82 W5        29.87R                  
NEW PHILLY     CLOUDY    42  37  82 NW5       29.85R                  
$$
  

SKY/WX - Weather  TMP - Temperature  DP - Dew Point  RH - Humidity
WIND - Wind Direction/Speed PRES - Barometric Pressure VSB - Visibility
WCI - Wind Chill Index E13G22 Wind - East Wind 13 mph/Gusts of 22 mph

Trending Headlines

Trending Entertainment Headlines

Columbus Radar Loop

Use the map search tool if you want to place a location marker on the radar map...

Columbus Quick Facts

National Two Day Weather Forecast


E-mail the Columbus Weather Forecast

Voice your opinion or tell us about page issues...